| time (UTC) | temp C | wind direction | speed KPH | gust KPH | rain 1hr cm | rain 24hr cm | rain mn cm | humidity % | barometer mb |
| 20260504082002 | 12 | 131 | 4.8 | 8.0 | 0.00 | 0.00 | 0.00 | 41 | 1015.5 |
| 20260504081500 | 12 | 88 | 4.8 | 4.8 | 0.00 | 0.00 | 0.00 | 39 | 1015.5 |
| 20260504080955 | 11 | 108 | 3.2 | 8.0 | 0.00 | 0.00 | 0.00 | 38 | 1015.5 |
| 20260504080452 | 11 | 94 | 3.2 | 4.8 | 0.00 | 0.00 | 0.00 | 41 | 1015.6 |
| 20260504050305 | 11 | 133 | 0.0 | 6.4 | 0.00 | 0.00 | 0.00 | 43 | 1016.2 |
| 20260504045803 | 11 | 192 | 3.2 | 6.4 | 0.00 | 0.00 | 0.00 | 41 | 1016.3 |
| 20260504045304 | 11 | 160 | 3.2 | 4.8 | 0.00 | 0.00 | 0.00 | 42 | 1016.5 |
| 20260504044800 | 10 | 191 | 3.2 | 4.8 | 0.00 | 0.00 | 0.00 | 42 | 1016.3 |
| 20260504044257 | 10 | 122 | 3.2 | 6.4 | 0.00 | 0.00 | 0.00 | 43 | 1016.4 |
| 20260504043754 | 11 | 199 | 3.2 | 6.4 | 0.00 | 0.00 | 0.00 | 42 | 1016.4 |
| 20260504043251 | 10 | 187 | 0.0 | 3.2 | 0.00 | 0.00 | 0.00 | 43 | 1016.4 |
| 20260504042749 | 10 | 197 | 1.6 | 3.2 | 0.00 | 0.00 | 0.00 | 43 | 1016.3 |
| 20260504042245 | 10 | 194 | 0.0 | 4.8 | 0.00 | 0.00 | 0.00 | 43 | 1016.1 |
| 20260504041741 | 10 | 187 | 0.0 | 6.4 | 0.00 | 0.00 | 0.00 | 44 | 1016.2 |
| 20260504041237 | 10 | 186 | 3.2 | 3.2 | 0.00 | 0.00 | 0.00 | 42 | 1016.2 |
| 20260504040734 | 11 | 192 | 3.2 | 4.8 | 0.00 | 0.00 | 0.00 | 41 | 1016.1 |
| 20260504040231 | 11 | 193 | 3.2 | 4.8 | 0.00 | 0.00 | 0.00 | 42 | 1016.4 |
| 20260504035727 | 11 | 147 | 1.6 | 4.8 | 0.00 | 0.00 | 0.00 | 43 | 1016.1 |
| 20260504035225 | 11 | 191 | 1.6 | 4.8 | 0.00 | 0.00 | 0.00 | 43 | 1016.3 |
| 20260504034722 | 11 | 196 | 0.0 | 4.8 | 0.00 | 0.00 | 0.00 | 43 | 1016.1 |
| 20260504034219 | 11 | 187 | 0.0 | 3.2 | 0.00 | 0.00 | 0.00 | 42 | 1016.1 |
| 20260504033717 | 11 | 198 | 3.2 | 6.4 | 0.00 | 0.00 | 0.00 | 42 | 1016.0 |
| 20260504033214 | 11 | 219 | 1.6 | 3.2 | 0.00 | 0.00 | 0.00 | 42 | 1015.9 |
| 20260504032711 | 11 | 223 | 4.8 | 8.0 | 0.00 | 0.00 | 0.00 | 41 | 1016.3 |
| 20260504032208 | 11 | 199 | 1.6 | 6.4 | 0.00 | 0.00 | 0.00 | 40 | 1016.2 |
| 20260504031705 | 11 | 223 | 4.8 | 8.0 | 0.00 | 0.00 | 0.00 | 40 | 1016.1 |
| 20260504031201 | 11 | 214 | 4.8 | 8.0 | 0.00 | 0.00 | 0.00 | 40 | 1016.0 |
| 20260504030658 | 11 | 249 | 4.8 | 8.0 | 0.00 | 0.00 | 0.00 | 40 | 1016.1 |
| 20260504030155 | 11 | 242 | 4.8 | 6.4 | 0.00 | 0.00 | 0.00 | 38 | 1016.0 |
| 20260504025651 | 11 | 240 | 4.8 | 6.4 | 0.00 | 0.00 | 0.00 | 38 | 1015.9 |
| 20260504025148 | 11 | 229 | 3.2 | 6.4 | 0.00 | 0.00 | 0.00 | 39 | 1015.9 |
| 20260504024645 | 12 | 237 | 3.2 | 6.4 | 0.00 | 0.00 | 0.00 | 39 | 1015.8 |
| 20260504024142 | 11 | 227 | 3.2 | 4.8 | 0.00 | 0.00 | 0.00 | 39 | 1015.9 |
| 20260504023639 | 11 | 218 | 3.2 | 6.4 | 0.00 | 0.00 | 0.00 | 40 | 1015.9 |
| 20260504023135 | 11 | 230 | 4.8 | 8.0 | 0.00 | 0.00 | 0.00 | 39 | 1015.7 |
| 20260504022631 | 11 | 220 | 4.8 | 6.4 | 0.00 | 0.00 | 0.00 | 39 | 1015.8 |
| 20260504022127 | 11 | 252 | 3.2 | 6.4 | 0.00 | 0.00 | 0.00 | 39 | 1015.9 |
| 20260504021625 | 11 | 221 | 3.2 | 4.8 | 0.00 | 0.00 | 0.00 | 39 | 1015.9 |
| 20260504021121 | 11 | 240 | 0.0 | 4.8 | 0.00 | 0.00 | 0.00 | 39 | 1015.7 |
| 20260504020619 | 11 | 219 | 4.8 | 6.4 | 0.00 | 0.00 | 0.00 | 40 | 1015.8 |
| 20260504020115 | 11 | 223 | 3.2 | 4.8 | 0.00 | 0.00 | 0.00 | 40 | 1015.6 |
| 20260504015611 | 11 | 228 | 0.0 | 4.8 | 0.00 | 0.00 | 0.00 | 40 | 1015.8 |
| 20260504015107 | 11 | 212 | 0.0 | 3.2 | 0.00 | 0.00 | 0.00 | 41 | 1015.7 |
| 20260504014604 | 11 | 147 | 0.0 | 3.2 | 0.00 | 0.00 | 0.00 | 39 | 1015.7 |
| 20260504014101 | 12 | 215 | 0.0 | 4.8 | 0.00 | 0.00 | 0.00 | 39 | 1015.6 |
| 20260504013558 | 11 | 219 | 4.8 | 6.4 | 0.00 | 0.00 | 0.00 | 39 | 1015.6 |
| 20260504013055 | 11 | 219 | 1.6 | 3.2 | 0.00 | 0.00 | 0.00 | 39 | 1015.8 |
| 20260504012553 | 12 | 199 | 1.6 | 3.2 | 0.00 | 0.00 | 0.00 | 38 | 1015.6 |
| 20260504012050 | 12 | 202 | 0.0 | 3.2 | 0.00 | 0.00 | 0.00 | 38 | 1015.5 |
| 20260504011547 | 12 | 219 | 1.6 | 4.8 | 0.00 | 0.00 | 0.00 | 38 | 1015.6 |
| 20260504011043 | 12 | 213 | 1.6 | 4.8 | 0.00 | 0.00 | 0.00 | 39 | 1015.3 |
| 20260504010539 | 12 | 224 | 4.8 | 4.8 | 0.00 | 0.00 | 0.00 | 39 | 1015.5 |
| 20260504010035 | 12 | 228 | 1.6 | 4.8 | 0.00 | 0.00 | 0.00 | 39 | 1015.5 |
| 20260504005532 | 12 | 204 | 1.6 | 6.4 | 0.00 | 0.00 | 0.00 | 39 | 1015.4 |
| 20260504005030 | 12 | 218 | 3.2 | 4.8 | 0.00 | 0.00 | 0.00 | 39 | 1015.5 |
| 20260504004527 | 12 | 239 | 4.8 | 6.4 | 0.00 | 0.00 | 0.00 | 38 | 1015.4 |
| 20260504004024 | 12 | 248 | 3.2 | 4.8 | 0.00 | 0.00 | 0.00 | 38 | 1015.2 |
| 20260504003520 | 12 | 216 | 3.2 | 6.4 | 0.00 | 0.00 | 0.00 | 38 | 1015.4 |
| 20260504003017 | 12 | 219 | 3.2 | 6.4 | 0.00 | 0.00 | 0.00 | 38 | 1015.3 |
| 20260504002514 | 12 | 229 | 4.8 | 4.8 | 0.00 | 0.00 | 0.00 | 39 | 1015.5 |
| 20260504002011 | 12 | 271 | 3.2 | 6.4 | 0.00 | 0.00 | 0.00 | 39 | 1015.3 |
| 20260504001509 | 12 | 206 | 3.2 | 4.8 | 0.00 | 0.00 | 0.00 | 39 | 1015.3 |
| 20260504001005 | 12 | 225 | 3.2 | 4.8 | 0.00 | 0.00 | 0.00 | 38 | 1015.2 |
| 20260504000502 | 12 | 212 | 4.8 | 6.4 | 0.00 | 0.00 | 0.00 | 38 | 1015.1 |
| 20260503235959 | 12 | 220 | 3.2 | 4.8 | 0.00 | 0.00 | 0.00 | 38 | 1015.3 |
| 20260503235457 | 12 | 220 | 3.2 | 3.2 | 0.00 | 0.00 | 0.00 | 38 | 1015.0 |
| 20260503234954 | 13 | 228 | 3.2 | 4.8 | 0.00 | 0.00 | 0.00 | 37 | 1015.4 |
| 20260503234452 | 13 | 244 | 4.8 | 6.4 | 0.00 | 0.00 | 0.00 | 37 | 1015.1 |
| 20260503233950 | 13 | 235 | 4.8 | 8.0 | 0.00 | 0.00 | 0.00 | 37 | 1015.2 |
| 20260503233446 | 13 | 252 | 4.8 | 8.0 | 0.00 | 0.00 | 0.00 | 36 | 1014.9 |
| 20260503232942 | 13 | 269 | 0.0 | 6.4 | 0.00 | 0.00 | 0.00 | 35 | 1014.9 |
| 20260503232439 | 13 | 279 | 3.2 | 4.8 | 0.00 | 0.00 | 0.00 | 37 | 1014.7 |
| 20260503231937 | 14 | 259 | 4.8 | 8.0 | 0.00 | 0.00 | 0.00 | 36 | 1014.9 |
| 20260503231434 | 14 | 244 | 4.8 | 8.0 | 0.00 | 0.00 | 0.00 | 36 | 1014.9 |
| 20260503230931 | 14 | 218 | 3.2 | 9.7 | 0.00 | 0.00 | 0.00 | 35 | 1014.8 |
| 20260503230427 | 14 | 240 | 8.0 | 11.3 | 0.00 | 0.00 | 0.00 | 35 | 1014.8 |
| 20260503225925 | 14 | 234 | 8.0 | 11.3 | 0.00 | 0.00 | 0.00 | 37 | 1014.7 |
| 20260503225422 | 15 | 241 | 4.8 | 9.7 | 0.00 | 0.00 | 0.00 | 36 | 1014.6 |
| 20260503224917 | 15 | 282 | 3.2 | 9.7 | 0.00 | 0.00 | 0.00 | 34 | 1014.8 |
| 20260503224414 | 15 | 227 | 6.4 | 11.3 | 0.00 | 0.00 | 0.00 | 34 | 1014.8 |
| 20260503223912 | 15 | 244 | 8.0 | 8.0 | 0.00 | 0.00 | 0.00 | 32 | 1014.6 |
| 20260503223410 | 15 | 240 | 3.2 | 11.3 | 0.00 | 0.00 | 0.00 | 33 | 1014.7 |
| 20260503222910 | 15 | 252 | 9.7 | 14.5 | 0.00 | 0.00 | 0.00 | 32 | 1014.8 |
| 20260503222409 | 15 | 258 | 9.7 | 11.3 | 0.00 | 0.00 | 0.00 | 34 | 1014.8 |
| 20260503221907 | 15 | 253 | 6.4 | 9.7 | 0.00 | 0.00 | 0.00 | 33 | 1014.6 |
| 20260503221405 | 15 | 269 | 6.4 | 11.3 | 0.00 | 0.00 | 0.00 | 33 | 1014.7 |
| 20260503220901 | 15 | 266 | 8.0 | 9.7 | 0.00 | 0.00 | 0.00 | 33 | 1014.8 |
| 20260503220358 | 15 | 253 | 6.4 | 14.5 | 0.00 | 0.00 | 0.00 | 31 | 1015.0 |
| 20260503215855 | 15 | 261 | 8.0 | 17.7 | 0.00 | 0.00 | 0.00 | 34 | 1014.9 |
| 20260503215352 | 15 | 223 | 6.4 | 8.0 | 0.00 | 0.00 | 0.00 | 31 | 1014.9 |
| 20260503214849 | 15 | 323 | 4.8 | 9.7 | 0.00 | 0.00 | 0.00 | 31 | 1014.7 |
| 20260503214347 | 15 | 221 | 6.4 | 8.0 | 0.00 | 0.00 | 0.00 | 34 | 1014.9 |
| 20260503213844 | 15 | 352 | 4.8 | 14.5 | 0.00 | 0.00 | 0.00 | 34 | 1014.9 |
| 20260503213341 | 15 | 243 | 11.3 | 14.5 | 0.00 | 0.00 | 0.00 | 32 | 1014.7 |
| 20260503212838 | 15 | 254 | 4.8 | 11.3 | 0.00 | 0.00 | 0.00 | 32 | 1015.0 |
| 20260503212336 | 16 | 224 | 4.8 | 8.0 | 0.00 | 0.00 | 0.00 | 34 | 1014.9 |
| 20260503211833 | 15 | 241 | 4.8 | 14.5 | 0.00 | 0.00 | 0.00 | 34 | 1015.0 |
| 20260503211330 | 15 | 293 | 3.2 | 11.3 | 0.00 | 0.00 | 0.00 | 32 | 1015.0 |
| 20260503210825 | 15 | 245 | 6.4 | 11.3 | 0.00 | 0.00 | 0.00 | 34 | 1015.0 |
| 20260503210322 | 15 | 298 | 9.7 | 22.5 | 0.00 | 0.00 | 0.00 | 33 | 1015.0 |
| 20260503205817 | 15 | 358 | 4.8 | 11.3 | 0.00 | 0.00 | 0.00 | 35 | 1014.8 |
| 20260503205314 | 16 | 67 | 3.2 | 11.3 | 0.00 | 0.00 | 0.00 | 35 | 1014.7 |
| 20260503204811 | 16 | 228 | 9.7 | 11.3 | 0.00 | 0.00 | 0.00 | 33 | 1015.0 |
| 20260503204309 | 15 | 255 | 8.0 | 11.3 | 0.00 | 0.00 | 0.00 | 31 | 1015.1 |
| 20260503203806 | 15 | 278 | 6.4 | 14.5 | 0.00 | 0.00 | 0.00 | 30 | 1014.9 |
| 20260503203303 | 15 | 247 | 6.4 | 16.1 | 0.00 | 0.00 | 0.00 | 32 | 1015.3 |
| 20260503202800 | 15 | 325 | 8.0 | 11.3 | 0.00 | 0.00 | 0.00 | 34 | 1015.0 |
| 20260503202258 | 15 | 261 | 9.7 | 17.7 | 0.00 | 0.00 | 0.00 | 32 | 1015.2 |
| 20260503201755 | 15 | 251 | 9.7 | 17.7 | 0.00 | 0.00 | 0.00 | 34 | 1015.0 |
| 20260503201252 | 16 | 265 | 6.4 | 11.3 | 0.00 | 0.00 | 0.00 | 31 | 1015.0 |
| 20260503200749 | 15 | 263 | 4.8 | 17.7 | 0.00 | 0.00 | 0.00 | 31 | 1015.1 |
| 20260503200245 | 14 | 292 | 4.8 | 14.5 | 0.00 | 0.00 | 0.00 | 34 | 1015.2 |
| 20260503195743 | 13 | 214 | 4.8 | 12.9 | 0.00 | 0.00 | 0.00 | 34 | 1015.4 |
| 20260503195239 | 14 | 244 | 8.0 | 14.5 | 0.00 | 0.00 | 0.00 | 32 | 1015.4 |
| 20260503194737 | 15 | 212 | 6.4 | 14.5 | 0.00 | 0.00 | 0.00 | 33 | 1015.6 |
| 20260503194232 | 15 | 242 | 4.8 | 9.7 | 0.00 | 0.00 | 0.00 | 32 | 1015.6 |
| 20260503193729 | 15 | 271 | 4.8 | 11.3 | 0.00 | 0.00 | 0.00 | 33 | 1015.4 |
| 20260503193225 | 16 | 271 | 11.3 | 14.5 | 0.00 | 0.00 | 0.00 | 31 | 1015.6 |
| 20260503192721 | 15 | 306 | 4.8 | 12.9 | 0.00 | 0.00 | 0.00 | 32 | 1015.6 |
| 20260503192216 | 15 | 255 | 8.0 | 9.7 | 0.00 | 0.00 | 0.00 | 33 | 1015.8 |
| 20260503191713 | 15 | 239 | 8.0 | 11.3 | 0.00 | 0.00 | 0.00 | 33 | 1015.9 |
| 20260503191210 | 15 | 250 | 11.3 | 17.7 | 0.00 | 0.00 | 0.00 | 33 | 1015.9 |
| 20260503190707 | 15 | 218 | 3.2 | 12.9 | 0.00 | 0.00 | 0.00 | 31 | 1015.9 |
| 20260503190204 | 15 | 288 | 11.3 | 20.9 | 0.00 | 0.00 | 0.00 | 30 | 1016.0 |
| 20260503185701 | 15 | 280 | 6.4 | 14.5 | 0.00 | 0.00 | 0.00 | 32 | 1015.9 |
| 20260503185156 | 15 | 233 | 14.5 | 25.7 | 0.00 | 0.00 | 0.00 | 33 | 1016.1 |
| 20260503184651 | 15 | 286 | 4.8 | 14.5 | 0.00 | 0.00 | 0.00 | 30 | 1015.8 |
| 20260503184148 | 13 | 215 | 8.0 | 16.1 | 0.00 | 0.00 | 0.00 | 31 | 1016.2 |
| 20260503183644 | 15 | 277 | 6.4 | 16.1 | 0.00 | 0.00 | 0.00 | 31 | 1016.2 |
| 20260503183142 | 15 | 258 | 6.4 | 16.1 | 0.00 | 0.00 | 0.00 | 29 | 1016.3 |
| 20260503182640 | 15 | 285 | 9.7 | 14.5 | 0.00 | 0.00 | 0.00 | 32 | 1016.3 |
| 20260503182139 | 15 | 283 | 6.4 | 11.3 | 0.00 | 0.00 | 0.00 | 35 | 1016.4 |
| 20260503181635 | 15 | 247 | 8.0 | 17.7 | 0.00 | 0.00 | 0.00 | 32 | 1016.4 |
| 20260503181131 | 14 | 278 | 8.0 | 12.9 | 0.00 | 0.00 | 0.00 | 33 | 1016.4 |
| 20260503180628 | 14 | 255 | 9.7 | 14.5 | 0.00 | 0.00 | 0.00 | 32 | 1016.4 |
| 20260503180126 | 13 | 313 | 8.0 | 27.4 | 0.00 | 0.00 | 0.00 | 34 | 1016.5 |
| 20260503175623 | 13 | 219 | 11.3 | 16.1 | 0.00 | 0.00 | 0.00 | 35 | 1016.4 |
| 20260503175120 | 13 | 268 | 9.7 | 12.9 | 0.00 | 0.00 | 0.00 | 35 | 1016.5 |
| 20260503174616 | 13 | 236 | 11.3 | 14.5 | 0.00 | 0.00 | 0.00 | 35 | 1016.4 |
| 20260503174114 | 13 | 253 | 6.4 | 8.0 | 0.00 | 0.00 | 0.00 | 35 | 1016.7 |
| 20260503173608 | 13 | 255 | 11.3 | 22.5 | 0.00 | 0.00 | 0.00 | 37 | 1016.9 |
| 20260503173105 | 13 | 241 | 12.9 | 20.9 | 0.00 | 0.00 | 0.00 | 35 | 1016.8 |
| 20260503172602 | 12 | 279 | 9.7 | 16.1 | 0.00 | 0.00 | 0.00 | 38 | 1016.8 |
| 20260503172100 | 13 | 291 | 6.4 | 20.9 | 0.00 | 0.00 | 0.00 | 37 | 1016.6 |
| 20260503171555 | 12 | 254 | 11.3 | 14.5 | 0.00 | 0.00 | 0.00 | 38 | 1016.7 |
| 20260503171053 | 13 | 248 | 6.4 | 14.5 | 0.00 | 0.00 | 0.00 | 39 | 1017.0 |
| 20260503170549 | 12 | 239 | 8.0 | 17.7 | 0.00 | 0.00 | 0.00 | 37 | 1017.0 |
| 20260503150942 | 10 | 323 | 8.0 | 12.9 | 0.00 | 0.00 | 0.00 | 49 | 1018.0 |
| 20260503150439 | 8 | 276 | 12.9 | 16.1 | 0.00 | 0.00 | 0.00 | 49 | 1018.0 |
| 20260503131331 | 6 | 259 | 11.3 | 11.3 | 0.00 | 0.00 | 0.00 | 62 | 1018.1 |
| 20260503130829 | 6 | 235 | 4.8 | 12.9 | 0.00 | 0.00 | 0.00 | 65 | 1018.0 |
| 20260503130327 | 6 | 249 | 8.0 | 9.7 | 0.00 | 0.00 | 0.00 | 64 | 1018.2 |
| 20260503110720 | 2 | 247 | 6.4 | 9.7 | 0.00 | 0.00 | 0.00 | 79 | 1017.2 |
| 20260503110217 | 2 | 245 | 4.8 | 9.7 | 0.00 | 0.00 | 0.00 | 79 | 1017.5 |
| 20260503100144 | 2 | 257 | 8.0 | 11.3 | 0.00 | 0.00 | 0.00 | 81 | 1016.4 |